[[{"header":{"parameterUnit":"m.s-1","parameterCategory":1,"la1":30.2992,"la2":30.254,"lo1":-89.0895,"lo2":-89.0443,"dy":0.0025,"dx":0.0025,"nx":19,"ny":19,"refTime":"2026-05-06T21:00:00:Z","depth":0,"parameterNumber":2,"parameterNumberName":"U-component_of_WINDS"},"data":[0,0,0,5.3521,5.3526,5.3764,5.3765,5.4074,5.4076,0,0,0,0,0,0,0,0,0,0,0,5.3455,5.3457,5.3521,5.3527,5.3764,5.3765,5.4073,5.4076,0,0,0,0,0,0,0,0,0,0,0,5.3454,5.3457,5.3459,5.3528,5.3764,5.3765,5.4072,5.3891,0,0,0,0,0,0,0,0,0,0,5.366,5.3603,5.3456,5.3459,5.3529,5.3764,5.3765,5.3883,5.3903,5.3969,0,5.4029,0,5.4057,5.4097,5.4099,0,0,0,5.3524,5.3586,5.3646,5.346,5.3532,5.3763,5.3656,5.3894,5.3917,5.3995,5.4033,5.4044,5.4063,5.4099,5.4101,5.449,5.4492,0,0,5.3511,5.35,5.3631,5.3661,5.3626,5.3649,5.3664,5.3907,5.3948,5.4034,5.4051,5.4068,5.4102,5.4104,5.4488,5.4491,0,0,0,5.3475,5.3491,5.3545,5.3649,5.3691,5.3656,5.3673,5.3937,5.3955,5.4055,5.4071,5.4103,5.4107,5.4486,5.4489,5.4574,0,0,0,5.3467,5.347,5.3539,5.3535,5.3687,5.3817,5.3697,5.3939,5.3966,5.407,5.4103,5.411,5.4484,5.4488,5.4567,5.4616,0,0,0,5.3438,5.3466,5.3502,5.3534,5.3635,5.3813,5.3846,5.3945,5.3977,5.4099,5.4111,5.4483,5.4487,5.4561,5.4606,5.4714,0,0,0,5.3404,5.3575,5.3503,5.3701,5.3633,5.3864,5.3845,5.4017,5.4132,5.4105,5.4484,5.4489,5.4559,5.46,5.4707,5.4803,5.4842,0,0,5.3614,5.36,5.3717,5.366,5.39,5.3829,5.4082,5.4198,5.422,5.4399,5.4408,5.4569,5.4605,5.4713,5.5064,5.5095,0,0,0,5.378,5.3864,5.393,5.4038,5.4131,5.4213,5.4291,5.4334,5.4486,5.431,5.4638,5.466,5.4724,5.477,5.4796,5.485,5.451,5.4509,5.4509,5.4061,5.4079,5.4273,5.432,5.4425,5.4503,5.459,5.4661,5.4649,5.4726,5.4779,5.499,5.5044,5.5064,5.512,5.4832,5.4832,5.4832,5.4832,5.4369,5.449,5.4469,5.465,5.4668,5.4821,5.4902,5.4888,5.5032,5.4952,5.5009,5.492,5.5097,5.5147,5.4839,5.4838,5.4837,5.4836,5.4836,5.4554,5.4615,5.4664,5.4822,5.4941,5.4982,5.512,5.5132,5.5144,5.52,5.5256,5.5255,5.5254,5.5226,5.5227,5.5228,5.5228,5.5229,5.5229,5.4727,5.4779,5.4895,5.5006,5.5076,5.517,5.5249,5.5319,5.5398,5.5395,5.5396,5.5375,5.5111,5.5043,5.5241,5.5239,5.5237,5.5236,5.5235,5.5032,5.4965,5.5143,5.5213,5.5344,5.5461,5.5473,5.5613,5.5672,5.5739,5.5707,5.551,5.5496,5.5476,5.542,5.5703,5.5703,5.5703,5.5703,5.5188,5.5182,5.5366,5.5478,5.5588,5.5617,5.5816,5.5879,5.5933,5.597,5.5931,5.5858,5.5836,5.5836,5.5808,5.5756,5.6118,5.6118,5.6119,5.5376,5.5381,5.5549,5.5601,5.5703,5.5791,5.5978,5.6106,5.6153,5.6136,5.5999,5.5981,5.5864,5.5825,5.5804,5.576,5.5665,0,0]},{"header":{"parameterUnit":"m.s-1","parameterCategory":1,"la1":30.2992,"la2":30.254,"lo1":-89.0895,"lo2":-89.0443,"dy":0.0025,"dx":0.0025,"nx":19,"ny":19,"refTime":"2026-05-06T21:00:00:Z","depth":0,"parameterNumber":3,"parameterNumberName":"V-component_of_WINDS"},"data":[0,0,0,2.7937,2.7941,2.8158,2.8159,2.8432,2.8435,0,0,0,0,0,0,0,0,0,0,0,2.7869,2.787,2.7936,2.7942,2.8158,2.8159,2.8432,2.8435,0,0,0,0,0,0,0,0,0,0,0,2.7868,2.787,2.7872,2.7942,2.8158,2.8159,2.8431,2.8269,0,0,0,0,0,0,0,0,0,0,2.8059,2.7993,2.7869,2.7872,2.7944,2.8158,2.8159,2.8262,2.8279,2.8332,0,2.8376,0,2.841,2.8453,2.8453,0,0,0,2.7945,2.7978,2.804,2.7872,2.7945,2.8158,2.8061,2.8272,2.8292,2.8355,2.838,2.8391,2.8414,2.8454,2.8456,2.8745,2.8746,0,0,2.7933,2.7906,2.8026,2.8053,2.8018,2.8054,2.8068,2.8284,2.831,2.8381,2.8397,2.8419,2.8456,2.8458,2.8744,2.8745,0,0,0,2.7896,2.7897,2.7954,2.8041,2.8081,2.8061,2.8076,2.83,2.8321,2.84,2.8422,2.8458,2.8461,2.8742,2.8744,2.8779,0,0,0,2.7889,2.7876,2.7949,2.7935,2.8076,2.8193,2.8088,2.8306,2.8331,2.8421,2.8458,2.8463,2.8741,2.8743,2.8775,2.88,0,0,0,2.7856,2.7872,2.7902,2.7933,2.8025,2.819,2.8223,2.8312,2.8344,2.8454,2.8464,2.874,2.8743,2.8772,2.8795,2.8869,0,0,0,2.7813,2.793,2.7902,2.8042,2.8023,2.8209,2.8222,2.8362,2.846,2.8459,2.8741,2.8744,2.8771,2.8791,2.8865,2.8928,2.8951,0,0,2.7946,2.7945,2.8029,2.8011,2.8195,2.8178,2.8368,2.8483,2.8518,2.8667,2.8675,2.8776,2.8794,2.8868,2.9088,2.9106,0,0,0,2.8063,2.8123,2.8178,2.8269,2.8359,2.8439,2.8527,2.857,2.8698,2.8589,2.8823,2.8835,2.888,2.8911,2.8926,2.8967,2.8757,2.8757,2.8756,2.8214,2.8252,2.8394,2.8458,2.8547,2.8636,2.8712,2.8785,2.8797,2.8852,2.8897,2.9026,2.9061,2.9073,2.9115,2.8932,2.8932,2.8932,2.8932,2.8414,2.8506,2.8519,2.8662,2.8701,2.8822,2.8913,2.8917,2.9036,2.8995,2.9036,2.8989,2.9092,2.913,2.8935,2.8935,2.8934,2.8934,2.8934,2.8519,2.857,2.8619,2.8755,2.8855,2.8916,2.9029,2.9061,2.9091,2.9132,2.9184,2.9183,2.9188,2.9154,2.9155,2.9155,2.9155,2.9156,2.9156,2.8608,2.8663,2.8754,2.8859,2.8922,2.9009,2.91,2.9163,2.9241,2.9255,2.9256,2.9264,2.9094,2.9051,2.9163,2.9162,2.9161,2.916,2.916,2.8799,2.8761,2.8902,2.8965,2.9091,2.919,2.9228,2.9354,2.9411,2.9466,2.9464,2.9333,2.9335,2.9323,2.9288,2.9455,2.9455,2.9455,2.9455,2.8889,2.8892,2.9044,2.9142,2.9243,2.9291,2.9451,2.9522,2.9591,2.9628,2.9608,2.9564,2.955,2.9561,2.9544,2.9512,2.9731,2.9732,2.9732,2.9009,2.9023,2.9153,2.9218,2.9319,2.9405,2.9556,2.967,2.9739,2.9744,2.9659,2.9647,2.9576,2.9551,2.9555,2.9528,2.947,0,0]}]]